Location: Saint Louis
(38.6270°N, 90.1980°W)
Time: 14:55:22
(UTC-05:00)

ISS - Pass Details

Date: 06 April 2013
Orbit: 402 x 403 km, 51.6° (Epoch: 29 June)

Event Time Altitude Azimuth Distance (km) Brightness Sun altitude
Rises 22:01:58 0° 314° (NW) 2,408 1.8 -28.1°
Reaches altitude 10° 22:05:27 10° 352° (N) 1,567 0.2 -28.7°
Enters shadow 22:05:57 11° 360° (N) 1,521 0.0 -28.7°
